Regional Weather Roundup
Issued by NWS

Home | Current Version | Previous Version | Text Only | Print | Product List | Glossary On
Versions: 1 2 3 4 5 6 7 8 9 10 11 12 13 14 15 16 17 18 19 20 21 22 23 24 25 26 27 28 29 30 31 32 33 34 35 36 37 38 39 40 41 42 43 44 45 46 47 48 49 50
000
ASUS43 KDTX 291410
RWRMI
MICHIGAN HOURLY REGIONAL WEATHER ROUNDUP
NATIONAL WEATHER SERVICE DETROIT/PONTIAC MI
1000 AM EDT SUN MAR 29 2015

NOTE: "FAIR" INDICATES FEW OR NO CLOUDS BELOW 12,000 FEET WITH NO
SIGNIFICANT WEATHER AND/OR OBSTRUCTION TO VISIBILITY.

MIZ047>049-052>055-059>063-066>070-074>076-081>083-291500-
SOUTHEAST LOWER MICHIGAN

CITY           SKY/WX    TMP DP  RH WIND       PRES   REMARKS
ADRIAN         SUNNY     31  18  58 SW16      30.25F
ALMA           SUNNY     33  17  52 S12G18    30.16F
ANN ARBOR      SUNNY     31  19  61 SW10      30.24F
BAD AXE        MOSUNNY   32  13  46 SW17G23   30.17F
DETROIT CITY   SUNNY     34  16  47 SW12      30.26F
DETROIT        MOSUNNY   33  18  53 S16G24    30.27S
FLINT          SUNNY     34  13  41 S16       30.20F
GROSSE ILE     SUNNY     34  19  55 SW13      30.26S
HILLSDALE      SUNNY     31  17  55 SW12      30.20S
HOWELL         SUNNY     32  14  47 S10G21    30.20S

CITY           SKY/WX    TMP DP  RH WIND       PRES   REMARKS
JACKSON        SUNNY     32  15  49 SW17G25   30.20F
LAMBERTVILLE   SUNNY     34  18  51 S12G18    30.27F
LANSING        SUNNY     33  14  45 S16       30.18F
LAPEER         NOT AVBL
MASON          SUNNY     32  16  51 S10G17    30.19S
MONROE         SUNNY     32  18  55 SW12      30.26S
MT. CLEMENS    MOSUNNY   33  18  53 SW12      30.22F
PONTIAC        MOSUNNY   31  13  47 SW13G24   30.20F
PORT HOPE        N/A     33  13  43 VRB7G21   30.14F
PORT HURON     SUNNY     32  19  59 SW8       30.23F
TRI CITIES     SUNNY     33  16  49 SW13      30.16F
YPSILANTI      SUNNY     34  19  54 SW16      30.26S
$$
MIZ043>046-050>051-056>058-064>065-071>073-077>080-291500-
SOUTHWEST LOWER MICHIGAN

CITY           SKY/WX    TMP DP  RH WIND       PRES   REMARKS
BATTLE CREEK   MOSUNNY   33  16  49 S15G26    30.18S
BENTON HARBOR  PTSUNNY   33  17  51 S13G23    30.15F
BIG RAPIDS     PTSUNNY   32  14  47 S16G23    30.07F
COLDWATER      SUNNY     32  16  51 S10       30.20S
HOLLAND        PTSUNNY   34  18  52 S17       30.14F
GRAND RAPIDS   PTSUNNY   33  17  51 S13       30.15F
KALAMAZOO      MOSUNNY   32  17  54 S16       30.19R
MARSHALL         N/A     32  16  51 S15       30.19R
MUSKEGON       PTSUNNY   33  20  58 S17G29    30.10F
$$
MIZ016>042-291500-
NORTHERN LOWER MICHIGAN

CITY           SKY/WX    TMP DP  RH WIND       PRES   REMARKS
ALPENA         SUNNY     32  10  40 S15G21    30.05F
BEAVER ISLAND  MOSUNNY   32  23  68 S16G31    29.90F
BELLAIRE       SUNNY     34  12  40 S14G24    30.00F
CADILLAC       MOSUNNY   32  13  45 S20       30.00F
CHARLEVOIX     MOSUNNY   33  16  49 S12G18    29.99F
FRANKFORT      MOSUNNY   36  21  54 S21G32    29.97F
GAYLORD        SUNNY     29  10  45 SW16G25   29.97F
GRAYLING       SUNNY     32   8  35 S8G18     30.01F
HARBOR SPRINGS SUNNY     32  13  46 SW13G24   29.96F
HOUGHTON LAKE  SUNNY     31   9  39 SW14G25   30.04F
MANISTEE       PTSUNNY   34  19  55 S12G23    30.00F
OSCODA         SUNNY     32  15  49 SW15      30.10F
PELLSTON       SUNNY     33  12  41 S12G23    29.96F
TRAVERSE CITY  MOSUNNY   34  16  47 SW15G24   29.98F
$$
MIZ007>008-015-291500-
EASTERN UPPER MICHIGAN

CITY           SKY/WX    TMP DP  RH WIND       PRES   REMARKS
KINROSS        MOSUNNY   32  18  55 S14G23    29.91F
MACKINAC ISLAN SUNNY     32  14  48 S14G21    29.94F
NEWBERRY       MOSUNNY   29  25  82 S18G26    29.83F
S. S. MARIE    MOSUNNY   26  14  60 SE8       29.91F
$$
MIZ004>006-011>014-085-291500-
CENTRAL UPPER MICHIGAN

CITY           SKY/WX    TMP DP  RH WIND       PRES   REMARKS
MANISTIQUE     PTSUNNY   34  28  77 S21G31    29.85F
ESCANABA       CLOUDY    32  21  64 S18G33    29.82F
MENOMINEE      CLOUDY    34  19  55 SW21G32   29.84F
SAWYER-GWINN   PTSUNNY   28  18  64 S25G32    29.71F
$$
MIZ001>003-009>011-084-291500-
WESTERN UPPER MICHIGAN

CITY           SKY/WX    TMP DP  RH WIND       PRES   REMARKS
IRON MOUNTAIN  CLOUDY    32  17  54 S20G31    29.71F
HOUGHTON       LGT RAIN  34  19  54 S15G28    29.56F
COPPER HARBOR    N/A     34  22  61 SW16G28   29.57F
IRONWOOD       CLOUDY    34  27  75 S18G33    29.50F
$$

ABBREVIATIONS USED IN REMARKS
   TC - TEMPERATURE IN CELSIUS
  WCI - WIND CHILL INDEX
   HX - HEAT INDEX
  VSB - VISIBILITY



USA.gov is the U.S. government's official web portal to all federal, state and local government web resources and services.